Regional Weather Roundup
Issued by NWS

Home | Current Version | Previous Version | Graphics & Text | Print | Product List | Glossary On
Versions: 1 2 3 4 5 6 7 8 9 10 11 12 13 14 15 16 17 18 19 20 21 22 23 24 25 26 27 28 29 30 31 32 33 34 35 36 37 38 39 40 41 42 43 44 45 46 47 48 49 50
000
ASUS43 KBIS 030110
RWRND

NORTH DAKOTA REGIONAL WEATHER ROUNDUP
NATIONAL WEATHER SERVICE BISMARCK ND
800 PM CDT SUN AUG 02 2015

NOTE: "FAIR" INDICATES FEW OR NO CLOUDS BELOW 12,000 FEET WITH NO
SIGNIFICANT WEATHER AND/OR OBSTRUCTIONS TO VISIBILITY.


NDZ001>003-009>011-017-030200-
NORTHWEST NORTH DAKOTA

CITY           SKY/WX    TMP DP  RH WIND       PRES   REMARKS
WILLISTON      SUNNY     79  45  29 N9        29.97S
MINOT          SUNNY     75  47  36 NW15      29.92S
MINOT AFB      SUNNY     79  48  33 NW13      29.91S
$$

NDZ018>021-031>035-040>046-030200-
SOUTHWEST NORTH DAKOTA

CITY           SKY/WX    TMP DP  RH WIND       PRES   REMARKS
BISMARCK       SUNNY     76  51  41 N13       29.94R
DICKINSON      SUNNY     77  47  34 N10       29.97S
GARRISON         N/A     74  53  48 NW8       29.94S
HETTINGER ARPT SUNNY     80  47  31 N7        29.99S
$$

NDZ004>008-012>016-024-026-027-054-030200-
NORTHEAST NORTH DAKOTA

CITY           SKY/WX    TMP DP  RH WIND       PRES   REMARKS
GRAND FORKS    PTCLDY    74  48  39 NW15      29.81S
GRND FRKS AFB  CLEAR     72  47  41 NW13      29.83R
DEVILS LAKE    SUNNY     72  46  40 NW12      29.87S
$$

NDZ022-023-025-028>030-036>039-047>053-030200-
SOUTHEAST NORTH DAKOTA

CITY           SKY/WX    TMP DP  RH WIND       PRES   REMARKS
FARGO          CLEAR     74  50  42 NW10      29.84S
JAMESTOWN      CLEAR     72  52  49 NW9       29.89R
$$



USA.gov is the U.S. government's official web portal to all federal, state and local government web resources and services.